Home   Weather   USA   Boone   Past weeks
Flag for USA

Past Weather in Boone, North Carolina, USA — Yesterday and Last 2 Weeks

Currently: 55 °F. Sunny. (Weather station: Boone - Watauga County Hospital Heliport, USA). See more current weather

Past Weather in Boone — Graph

°F

Boone Temperature Yesterday

Maximum temperature yesterday: 70 °F (at 1:55 pm)
Minimum temperature yesterday: 54 °F (at 6:15 am)
Average temperature yesterday: 62 °F

High & Low Weather Summary for the Past Weeks

 TemperatureHumidityPressure
High79 °F (May 22, 3:55 pm)100% (May 15, 7:15 am)30.02 "Hg (May 15, 7:15 am)
Low48 °F (May 17, 5:35 am)33% (May 29, 5:35 pm)29.59 "Hg (May 15, 2:35 pm)
Average64 °F79%29.85 "Hg
* Reported May 15 7:15 am — May 30 7:55 am, Boone. Weather by CustomWeather, © 2024

Note: Actual official high and low records may vary slightly from our data, if they occured in-between our weather recording intervals... More about our weather records

Boone Weather History for the Previous 24 Hours

Scroll right to see more
 ConditionsComfort  
Time TempWeatherWind HumidityBarometerVisibility
7:55 am
Thu, May 30
54 °FSunny.7 mph69%30.02 "Hg10 mi
7:35 am53 °FSunny.8 mph73%30.02 "Hg10 mi
7:15 am52 °FSunny.9 mph75%30.01 "Hg10 mi
6:55 am51 °FSunny.12 mph79%30.00 "Hg10 mi
6:35 am50 °FSunny.12 mph79%29.99 "Hg10 mi
5:55 am51 °FClear.8 mph75%29.98 "Hg10 mi
5:35 am51 °FClear.9 mph77%29.97 "Hg10 mi
5:15 am51 °FClear.9 mph77%29.96 "Hg10 mi
4:35 am51 °FClear.8 mph79%29.96 "Hg10 mi
3:55 am51 °FClear.13 mph77%29.95 "Hg10 mi
3:15 am52 °FClear.8 mph77%29.95 "Hg10 mi
2:55 am52 °FClear.13 mph76%29.95 "Hg10 mi
2:35 am53 °FClear.12 mph75%29.95 "Hg10 mi
1:55 am53 °FClear.13 mph72%29.96 "Hg10 mi
12:55 am54 °FClear.12 mph67%29.95 "Hg10 mi
12:35 am55 °FClear.10 mph65%29.95 "Hg10 mi
12:15 am55 °FClear.9 mph65%29.95 "Hg10 mi
11:55 pm
Wed, May 29
56 °FClear.13 mph64%29.96 "Hg10 mi
11:35 pm56 °FClear.8 mph62%29.96 "Hg10 mi
11:15 pm57 °FClear.15 mph60%29.95 "Hg10 mi
10:35 pm59 °FClear.10 mph53%29.96 "Hg10 mi
10:15 pm59 °FClear.12 mph53%29.96 "Hg10 mi
9:35 pm60 °FClear.7 mph51%29.96 "Hg10 mi
9:15 pm60 °FClear.8 mph51%29.95 "Hg10 mi
8:55 pm61 °FClear.7 mph48%29.95 "Hg10 mi
8:35 pm62 °FSunny.8 mph46%29.95 "Hg10 mi
7:55 pm64 °FSunny.9 mph41%29.95 "Hg10 mi
7:35 pm65 °FSunny.12 mph39%29.94 "Hg10 mi
7:15 pm66 °FSunny.12 mph37%29.94 "Hg10 mi
6:55 pm66 °FScattered clouds.12 mph36%29.93 "Hg10 mi
6:35 pm68 °FSunny.14 mph34%29.93 "Hg10 mi
6:15 pm67 °FSunny.10 mph33%29.92 "Hg10 mi
5:55 pm68 °FSunny.13 mph33%29.92 "Hg10 mi
5:35 pm68 °FScattered clouds.22 mph33%29.92 "Hg10 mi
5:15 pm68 °FScattered clouds.14 mph35%29.91 "Hg10 mi
4:55 pm68 °FScattered clouds.22 mph37%29.91 "Hg10 mi
4:35 pm68 °FScattered clouds.18 mph37%29.91 "Hg10 mi
3:35 pm67 °FScattered clouds.25 mph39%29.93 "Hg10 mi
3:15 pm68 °FScattered clouds.23 mph37%29.93 "Hg10 mi
2:55 pm68 °FScattered clouds.18 mph36%29.94 "Hg10 mi
2:35 pm68 °FScattered clouds.22 mph38%29.94 "Hg10 mi
2:15 pm68 °FScattered clouds.20 mph35%29.94 "Hg10 mi
1:55 pm70 °FSunny.21 mph38%29.94 "Hg10 mi
1:35 pm68 °FScattered clouds.20 mph39%29.94 "Hg10 mi
1:15 pm68 °FScattered clouds.18 mph38%29.95 "Hg10 mi
12:55 pm68 °FScattered clouds.17 mph37%29.95 "Hg10 mi
12:35 pm68 °FScattered clouds.13 mph38%29.96 "Hg10 mi
12:15 pm68 °FScattered clouds.22 mph36%29.97 "Hg10 mi
11:55 am69 °FScattered clouds.17 mph34%29.97 "Hg10 mi
11:35 am69 °FSunny.16 mph35%29.97 "Hg10 mi
11:15 am69 °FSunny.23 mph38%29.97 "Hg10 mi
10:55 am67 °FSunny.14 mph40%29.97 "Hg10 mi
10:15 am65 °FSunny.12 mph45%29.98 "Hg10 mi
9:35 am63 °FSunny.14 mph56%29.97 "Hg10 mi
9:15 am62 °FSunny.15 mph60%29.97 "Hg10 mi
Weather by CustomWeather, © 2024

See weather overview